• Em Portugal
  • Lista de países
  • Para 7 dias
  • Temperatura da água
  • Mapas de satélite
  • Mapa do tempo
  • Widgets de tempo
  • user-avatar
    Iniciar Sessão

    Previsão horária em Lubomin

    Hoje, 25 Setembro, Terça-feira

    Tempo Temperatura Precipitação Vento Pressão Humidade
    00:00 +3°C° 0 mm 4 m/s 730 mmHg 83%
    01:00 +2°C° 0 mm 3 m/s 731 mmHg 88%
    02:00 +2°C° 0 mm 3 m/s 731 mmHg 88%
    03:00 +1°C° 0 mm 4 m/s 731 mmHg 87%
    04:00 +1°C° 0 mm 4 m/s 732 mmHg 87%
    05:00 +1°C° 0 mm 4 m/s 732 mmHg 86%
    06:00 +1°C° 0 mm 4 m/s 733 mmHg 84%
    07:00 +3°C° 0 mm 4 m/s 733 mmHg 81%
    08:00 +4°C° 0 mm 4 m/s 734 mmHg 74%
    09:00 +6°C° 0 mm 5 m/s 734 mmHg 68%
    10:00 +7°C° 0 mm 5 m/s 735 mmHg 62%
    11:00 +8°C° 0 mm 5 m/s 735 mmHg 58%
    12:00 +9°C° 0 mm 5 m/s 735 mmHg 54%
    13:00 +9°C° 0 mm 5 m/s 735 mmHg 50%
    14:00 +10°C° 0 mm 4 m/s 735 mmHg 50%
    15:00 +10°C° 0 mm 4 m/s 735 mmHg 51%
    16:00 +10°C° 0 mm 4 m/s 735 mmHg 51%
    17:00 +9°C° 0 mm 3 m/s 735 mmHg 58%
    18:00 +7°C° 0 mm 3 m/s 736 mmHg 64%
    19:00 +5°C° 0 mm 2 m/s 736 mmHg 71%
    20:00 +5°C° 0 mm 2 m/s 736 mmHg 72%
    21:00 +5°C° 0 mm 2 m/s 737 mmHg 73%
    22:00 +4°C° 0 mm 2 m/s 737 mmHg 74%
    23:00 +4°C° 0 mm 2 m/s 737 mmHg 75%

    Amanhã, 26 Setembro, Quarta-feira

    Tempo Temperatura Precipitação Vento Pressão Humidade
    00:00 +4°C° 0 mm 2 m/s 737 mmHg 75%
    01:00 +3°C° 0 mm 2 m/s 737 mmHg 76%
    02:00 +3°C° 0 mm 2 m/s 737 mmHg 76%
    03:00 +3°C° 0 mm 2 m/s 737 mmHg 77%
    04:00 +3°C° 0 mm 2 m/s 736 mmHg 77%
    05:00 +3°C° 0 mm 2 m/s 736 mmHg 76%
    06:00 +4°C° 0 mm 2 m/s 736 mmHg 74%
    07:00 +4°C° 0 mm 2 m/s 736 mmHg 73%
    08:00 +5°C° 0 mm 3 m/s 736 mmHg 65%
    09:00 +8°C° 0 mm 3 m/s 736 mmHg 56%
    10:00 +10°C° 0 mm 3 m/s 736 mmHg 48%
    11:00 +11°C° 0 mm 4 m/s 736 mmHg 45%
    12:00 +12°C° 0 mm 4 m/s 735 mmHg 42%
    13:00 +13°C° 0 mm 4 m/s 735 mmHg 39%
    14:00 +13°C° 0 mm 4 m/s 734 mmHg 40%
    15:00 +13°C° 0 mm 4 m/s 734 mmHg 41%
    16:00 +13°C° 0 mm 4 m/s 733 mmHg 42%
    17:00 +12°C° 0 mm 4 m/s 733 mmHg 45%
    18:00 +11°C° 0 mm 4 m/s 733 mmHg 48%
    19:00 +8°C° 0 mm 4 m/s 733 mmHg 50%
    20:00 +8°C° 0 mm 4 m/s 733 mmHg 51%
    21:00 +8°C° 0 mm 4 m/s 733 mmHg 52%
    22:00 +8°C° 0 mm 4 m/s 733 mmHg 53%
    23:00 +8°C° 0 mm 3 m/s 732 mmHg 54%

    Depois de amanhã, 27 Setembro, Quinta-feira

    Tempo Temperatura Precipitação Vento Pressão Humidade
    00:00 +8°C° 0 mm 3 m/s 732 mmHg 55%
    01:00 +8°C° 0 mm 3 m/s 732 mmHg 56%
    02:00 +8°C° 0 mm 3 m/s 732 mmHg 56%
    03:00 +8°C° 0 mm 3 m/s 732 mmHg 57%
    04:00 +8°C° 0 mm 3 m/s 732 mmHg 57%
    05:00 +8°C° 0 mm 3 m/s 732 mmHg 57%
    06:00 +9°C° 0 mm 3 m/s 732 mmHg 58%
    07:00 +9°C° 0 mm 3 m/s 732 mmHg 58%
    08:00 +11°C° 0 mm 3 m/s 732 mmHg 55%
    09:00 +13°C° 0 mm 4 m/s 732 mmHg 52%
    10:00 +15°C° 0 mm 4 m/s 732 mmHg 49%
    11:00 +17°C° 0 mm 4 m/s 732 mmHg 50%
    12:00 +19°C° 0 mm 4 m/s 732 mmHg 50%
    13:00 +20°C° 0 mm 4 m/s 731 mmHg 50%
    14:00 +20°C° 0 mm 4 m/s 731 mmHg 51%
    15:00 +20°C° 0 mm 3 m/s 731 mmHg 53%
    16:00 +20°C° 0 mm 3 m/s 730 mmHg 54%
    17:00 +18°C° 0 mm 3 m/s 730 mmHg 59%
    18:00 +16°C° 0 mm 2 m/s 729 mmHg 64%
    19:00 +14°C° 0 mm 2 m/s 729 mmHg 68%
    20:00 +14°C° 0 mm 2 m/s 729 mmHg 67%
    21:00 +13°C° 0 mm 2 m/s 728 mmHg 66%
    22:00 +13°C° 0 mm 2 m/s 728 mmHg 64%
    23:00 +13°C° 0 mm 2 m/s 727 mmHg 64%

    28 Setembro, Sexta-feira

    Tempo Temperatura Precipitação Vento Pressão Humidade
    00:00 +11°C° 0 mm 3 m/s 727 mmHg 64%
    01:00 +11°C° 0 mm 3 m/s 726 mmHg 63%
    02:00 +11°C° 0 mm 3 m/s 726 mmHg 64%
    03:00 +10°C° 0 mm 3 m/s 725 mmHg 64%
    04:00 +10°C° 0 mm 3 m/s 725 mmHg 64%
    05:00 +10°C° 0 mm 3 m/s 725 mmHg 64%
    06:00 +10°C° 0 mm 3 m/s 724 mmHg 65%
    07:00 +10°C° 0 mm 3 m/s 724 mmHg 65%
    08:00 +12°C° 0 mm 3 m/s 725 mmHg 60%
    09:00 +14°C° 0 mm 3 m/s 725 mmHg 55%
    10:00 +15°C° 0 mm 4 m/s 725 mmHg 51%
    11:00 +17°C° 0 mm 4 m/s 725 mmHg 49%
    12:00 +18°C° 0 mm 4 m/s 725 mmHg 48%
    13:00 +18°C° 0 mm 4 m/s 725 mmHg 46%
    14:00 +17°C° 0 mm 4 m/s 725 mmHg 51%
    15:00 +17°C° 0 mm 4 m/s 725 mmHg 55%
    16:00 +15°C° 0 mm 4 m/s 724 mmHg 60%
    17:00 +13°C° 0 mm 4 m/s 725 mmHg 67%
    18:00 +12°C° 0 mm 3 m/s 725 mmHg 75%
    19:00 +10°C° 0 mm 3 m/s 725 mmHg 83%
    20:00 +9°C° 0 mm 2 m/s 725 mmHg 84%
    21:00 +8°C° 0 mm 2 m/s 726 mmHg 84%
    22:00 +8°C° 0 mm 2 m/s 726 mmHg 85%
    23:00 +7°C° 0 mm 2 m/s 726 mmHg 85%

    29 Setembro, Sábado

    Tempo Temperatura Precipitação Vento Pressão Humidade
    00:00 +7°C° 0 mm 2 m/s 726 mmHg 85%
    01:00 +6°C° 0 mm 2 m/s 726 mmHg 84%
    02:00 +6°C° 0 mm 2 m/s 727 mmHg 86%
    03:00 +5°C° 0 mm 2 m/s 727 mmHg 88%
    04:00 +5°C° 0 mm 2 m/s 727 mmHg 89%
    05:00 +5°C° 0 mm 2 m/s 728 mmHg 89%
    06:00 +5°C° 0 mm 2 m/s 728 mmHg 88%
    07:00 +5°C° 0 mm 2 m/s 728 mmHg 87%
    08:00 +7°C° 0 mm 2 m/s 729 mmHg 76%
    09:00 +8°C° 0 mm 3 m/s 729 mmHg 66%
    10:00 +10°C° 0 mm 3 m/s 730 mmHg 55%
    11:00 +11°C° 0 mm 3 m/s 730 mmHg 51%
    12:00 +11°C° 0 mm 3 m/s 730 mmHg 48%
    13:00 +12°C° 0 mm 3 m/s 730 mmHg 45%
    14:00 +12°C° 0 mm 3 m/s 729 mmHg 46%
    15:00 +12°C° 0 mm 3 m/s 729 mmHg 47%
    16:00 +11°C° 0 mm 3 m/s 729 mmHg 47%
    17:00 +10°C° 0 mm 3 m/s 729 mmHg 53%
    18:00 +8°C° 0 mm 2 m/s 729 mmHg 59%
    19:00 +6°C° 0 mm 2 m/s 730 mmHg 65%
    20:00 +6°C° 0 mm 2 m/s 730 mmHg 66%
    21:00 +6°C° 0 mm 2 m/s 730 mmHg 68%
    22:00 +5°C° 0 mm 2 m/s 730 mmHg 69%
    23:00 +5°C° 0 mm 2 m/s 729 mmHg 70%

    30 Setembro, Domingo

    Tempo Temperatura Precipitação Vento Pressão Humidade
    00:00 +4°C° 0 mm 2 m/s 729 mmHg 72%
    01:00 +4°C° 0 mm 2 m/s 729 mmHg 73%
    02:00 +5°C° 0 mm 1 m/s 729 mmHg 74%
    03:00 +5°C° 0 mm 1 m/s 728 mmHg 75%
    04:00 +4°C° 0 mm 1 m/s 728 mmHg 77%
    05:00 +5°C° 0 mm 1 m/s 728 mmHg 76%
    06:00 +5°C° 0 mm 1 m/s 728 mmHg 76%
    07:00 +5°C° 0 mm 1 m/s 728 mmHg 76%
    08:00 +6°C° 0 mm 2 m/s 728 mmHg 67%
    09:00 +9°C° 0 mm 3 m/s 728 mmHg 59%
    10:00 +11°C° 0 mm 3 m/s 728 mmHg 50%
    11:00 +12°C° 0 mm 3 m/s 727 mmHg 47%
    12:00 +12°C° 0 mm 3 m/s 727 mmHg 44%
    13:00 +13°C° 0 mm 3 m/s 726 mmHg 42%
    14:00 +13°C° 0 mm 3 m/s 725 mmHg 43%
    15:00 +13°C° 0 mm 3 m/s 725 mmHg 44%
    16:00 +13°C° 0 mm 3 m/s 724 mmHg 46%
    17:00 +12°C° 0 mm 2 m/s 724 mmHg 52%
    18:00 +9°C° 0 mm 2 m/s 724 mmHg 58%
    19:00 +8°C° 0 mm 1 m/s 723 mmHg 65%
    20:00 +8°C° 0 mm 1 m/s 723 mmHg 66%
    21:00 +8°C° 0 mm 1 m/s 723 mmHg 67%
    22:00 +7°C° 0 mm 1 m/s 723 mmHg 68%
    23:00 +7°C° 0 mm 1 m/s 722 mmHg 69%
    Mostrar mais